When you browse on this site, cookies collect data to enhance your experience and personalize the content and advertising you see.
Visit our Privacy Policy to learn more. By continuing to use the site, you agree to this use of cookies and data.
  • In Spain
  • List of Countries
  • For 7 days
  • Water Temperature
  • Weather Map
  • Weather Widgets
  • user-avatar
    Login

    Hourly Weather York

    Today, 22 September, Sunday

    Time Temperature Precipitation Wind Pressure Humidity
    00:00 +14°C° 0 mm 2 mps 754 mmHg 81%
    01:00 +14°C° 0 mm 2 mps 753 mmHg 81%
    02:00 +14°C° 0 mm 2 mps 753 mmHg 82%
    03:00 +15°C° 0 mm 2 mps 752 mmHg 82%
    04:00 +15°C° 0 mm 2 mps 752 mmHg 84%
    05:00 +15°C° 0 mm 2 mps 751 mmHg 85%
    06:00 +15°C° 0 mm 1 mps 751 mmHg 87%
    07:00 +16°C° 0.1 mm 2 mps 751 mmHg 84%
    08:00 +17°C° 0.1 mm 2 mps 751 mmHg 81%
    09:00 +19°C° 0.1 mm 2 mps 750 mmHg 78%
    10:00 +19°C° 0.1 mm 2 mps 750 mmHg 79%
    11:00 +19°C° 0.1 mm 2 mps 750 mmHg 79%
    12:00 +19°C° 0.1 mm 2 mps 750 mmHg 80%
    13:00 +20°C° 0.1 mm 2 mps 750 mmHg 76%
    14:00 +21°C° 0.1 mm 3 mps 750 mmHg 73%
    15:00 +22°C° 0.1 mm 3 mps 750 mmHg 69%
    16:00 +21°C° 0.9 mm 3 mps 750 mmHg 76%
    17:00 +19°C° 0.9 mm 3 mps 750 mmHg 83%
    18:00 +18°C° 0.9 mm 3 mps 750 mmHg 90%
    19:00 +17°C° 1 mm 3 mps 750 mmHg 91%
    20:00 +17°C° 1 mm 2 mps 750 mmHg 92%
    21:00 +17°C° 1 mm 2 mps 751 mmHg 93%
    22:00 +16°C° 0 mm 2 mps 751 mmHg 93%
    23:00 +16°C° 0 mm 2 mps 751 mmHg 93%

    Tomorrow, 23 September, Monday

    Time Temperature Precipitation Wind Pressure Humidity
    00:00 +15°C° 0 mm 2 mps 751 mmHg 93%
    01:00 +15°C° 0 mm 2 mps 752 mmHg 93%
    02:00 +15°C° 0 mm 2 mps 752 mmHg 93%
    03:00 +14°C° 0 mm 2 mps 752 mmHg 92%
    04:00 +14°C° 0 mm 2 mps 752 mmHg 93%
    05:00 +13°C° 0 mm 2 mps 752 mmHg 94%
    06:00 +13°C° 0 mm 2 mps 753 mmHg 94%
    07:00 +14°C° 0 mm 2 mps 753 mmHg 90%
    08:00 +15°C° 0 mm 2 mps 753 mmHg 85%
    09:00 +17°C° 0 mm 3 mps 754 mmHg 81%
    10:00 +17°C° 0 mm 3 mps 754 mmHg 78%
    11:00 +18°C° 0 mm 3 mps 754 mmHg 75%
    12:00 +19°C° 0 mm 4 mps 754 mmHg 71%
    13:00 +19°C° 0 mm 4 mps 754 mmHg 66%
    14:00 +19°C° 0 mm 4 mps 754 mmHg 62%
    15:00 +19°C° 0 mm 4 mps 754 mmHg 57%
    16:00 +19°C° 0 mm 4 mps 754 mmHg 61%
    17:00 +18°C° 0 mm 4 mps 753 mmHg 65%
    18:00 +17°C° 0 mm 3 mps 753 mmHg 70%
    19:00 +17°C° 0 mm 4 mps 753 mmHg 73%
    20:00 +15°C° 0 mm 4 mps 753 mmHg 77%
    21:00 +15°C° 0 mm 5 mps 753 mmHg 80%
    22:00 +15°C° 0.3 mm 5 mps 752 mmHg 84%
    23:00 +15°C° 0.3 mm 5 mps 752 mmHg 87%

    Day after tomorrow, 24 September, Tuesday

    Time Temperature Precipitation Wind Pressure Humidity
    00:00 +15°C° 0.3 mm 6 mps 751 mmHg 90%
    01:00 +15°C° 0.1 mm 5 mps 751 mmHg 90%
    02:00 +15°C° 0.1 mm 4 mps 750 mmHg 91%
    03:00 +15°C° 0.1 mm 4 mps 750 mmHg 91%
    04:00 +15°C° 0.4 mm 4 mps 749 mmHg 92%
    05:00 +17°C° 0.4 mm 4 mps 749 mmHg 93%
    06:00 +17°C° 0.4 mm 3 mps 748 mmHg 94%
    07:00 +17°C° 0.5 mm 4 mps 748 mmHg 91%
    08:00 +18°C° 0.5 mm 4 mps 747 mmHg 88%
    09:00 +17°C° 0.5 mm 5 mps 747 mmHg 86%
    10:00 +17°C° 1.4 mm 5 mps 747 mmHg 85%
    11:00 +17°C° 1.4 mm 6 mps 746 mmHg 85%
    12:00 +17°C° 1.4 mm 7 mps 746 mmHg 85%
    13:00 +17°C° 1.1 mm 6 mps 746 mmHg 86%
    14:00 +16°C° 1.1 mm 5 mps 745 mmHg 87%
    15:00 +16°C° 1.1 mm 5 mps 745 mmHg 88%
    16:00 +15°C° 1.3 mm 5 mps 745 mmHg 89%
    17:00 +14°C° 1.3 mm 5 mps 745 mmHg 89%
    18:00 +14°C° 1.3 mm 5 mps 745 mmHg 90%
    19:00 +14°C° 1.2 mm 4 mps 745 mmHg 91%
    20:00 +14°C° 1.2 mm 4 mps 745 mmHg 92%
    21:00 +14°C° 1.2 mm 4 mps 745 mmHg 92%
    22:00 +14°C° 0.5 mm 4 mps 745 mmHg 92%
    23:00 +14°C° 0.5 mm 4 mps 745 mmHg 92%

    25 September, Wednesday

    Time Temperature Precipitation Wind Pressure Humidity
    00:00 +14°C° 0.5 mm 4 mps 745 mmHg 91%
    01:00 +14°C° 0.3 mm 3 mps 745 mmHg 91%
    02:00 +14°C° 0.3 mm 3 mps 745 mmHg 92%
    03:00 +14°C° 0.3 mm 3 mps 745 mmHg 92%
    04:00 +14°C° 0.1 mm 3 mps 745 mmHg 92%
    05:00 +14°C° 0.1 mm 3 mps 745 mmHg 93%
    06:00 +15°C° 0.1 mm 2 mps 745 mmHg 93%
    07:00 +15°C° 0.1 mm 2 mps 746 mmHg 92%
    08:00 +15°C° 0.1 mm 2 mps 746 mmHg 91%
    09:00 +16°C° 0.1 mm 2 mps 746 mmHg 90%
    10:00 +17°C° 0.2 mm 2 mps 747 mmHg 86%
    11:00 +17°C° 0.2 mm 2 mps 747 mmHg 81%
    12:00 +18°C° 0.2 mm 2 mps 747 mmHg 77%
    13:00 +18°C° 0.4 mm 2 mps 747 mmHg 76%
    14:00 +18°C° 0.4 mm 3 mps 747 mmHg 75%
    15:00 +19°C° 0.4 mm 3 mps 747 mmHg 74%
    16:00 +18°C° 0 mm 3 mps 748 mmHg 77%
    17:00 +17°C° 0 mm 2 mps 748 mmHg 81%
    18:00 +16°C° 0 mm 1 mps 748 mmHg 84%
    19:00 +16°C° 0 mm 2 mps 748 mmHg 84%
    20:00 +16°C° 0 mm 2 mps 748 mmHg 85%
    21:00 +16°C° 0 mm 3 mps 747 mmHg 86%
    22:00 +15°C° 0.5 mm 4 mps 747 mmHg 88%
    23:00 +15°C° 0.5 mm 4 mps 746 mmHg 91%

    26 September, Thursday

    Time Temperature Precipitation Wind Pressure Humidity
    00:00 +15°C° 0.5 mm 5 mps 746 mmHg 94%
    01:00 +15°C° 1.6 mm 5 mps 746 mmHg 93%
    02:00 +16°C° 1.6 mm 5 mps 745 mmHg 91%
    03:00 +16°C° 1.6 mm 5 mps 745 mmHg 90%
    04:00 +16°C° 0.1 mm 5 mps 745 mmHg 89%
    05:00 +15°C° 0.1 mm 5 mps 745 mmHg 87%
    06:00 +15°C° 0.1 mm 5 mps 746 mmHg 86%
    07:00 +15°C° 0 mm 5 mps 746 mmHg 80%
    08:00 +15°C° 0 mm 5 mps 746 mmHg 75%
    09:00 +15°C° 0 mm 5 mps 747 mmHg 69%
    10:00 +16°C° 0 mm 5 mps 747 mmHg 66%
    11:00 +17°C° 0 mm 5 mps 747 mmHg 63%
    12:00 +19°C° 0 mm 5 mps 747 mmHg 60%
    13:00 +17°C° 0.3 mm 5 mps 747 mmHg 63%
    14:00 +17°C° 0.3 mm 5 mps 747 mmHg 67%
    15:00 +16°C° 0.3 mm 5 mps 746 mmHg 71%
    16:00 +15°C° 0.3 mm 4 mps 747 mmHg 75%
    17:00 +14°C° 0.3 mm 4 mps 747 mmHg 79%
    18:00 +14°C° 0.3 mm 3 mps 747 mmHg 84%
    19:00 +13°C° 0 mm 3 mps 747 mmHg 84%
    20:00 +13°C° 0 mm 4 mps 747 mmHg 84%
    21:00 +12°C° 0 mm 4 mps 747 mmHg 84%
    22:00 +12°C° 0 mm 4 mps 747 mmHg 85%
    23:00 +12°C° 0 mm 4 mps 747 mmHg 85%

    27 September, Friday

    Time Temperature Precipitation Wind Pressure Humidity
    00:00 +12°C° 0 mm 4 mps 747 mmHg 86%
    01:00 +12°C° 0 mm 4 mps 747 mmHg 86%
    02:00 +12°C° 0 mm 4 mps 747 mmHg 86%
    03:00 +12°C° 0 mm 4 mps 747 mmHg 87%
    04:00 +12°C° 0 mm 4 mps 747 mmHg 87%
    05:00 +12°C° 0 mm 4 mps 747 mmHg 88%
    06:00 +12°C° 0 mm 3 mps 747 mmHg 89%
    07:00 +13°C° 0 mm 4 mps 747 mmHg 84%
    08:00 +13°C° 0 mm 4 mps 748 mmHg 79%
    09:00 +14°C° 0 mm 4 mps 748 mmHg 74%
    10:00 +15°C° 0.1 mm 5 mps 748 mmHg 70%
    11:00 +16°C° 0.1 mm 6 mps 748 mmHg 66%
    12:00 +16°C° 0.1 mm 6 mps 748 mmHg 62%
    13:00 +16°C° 0.2 mm 6 mps 748 mmHg 63%
    14:00 +16°C° 0.2 mm 6 mps 747 mmHg 64%
    15:00 +16°C° 0.2 mm 6 mps 747 mmHg 64%
    16:00 +16°C° 0 mm 6 mps 747 mmHg 68%
    17:00 +15°C° 0 mm 5 mps 747 mmHg 72%
    18:00 +14°C° 0 mm 5 mps 747 mmHg 77%
    19:00 +14°C° 0.1 mm 5 mps 747 mmHg 78%
    20:00 +14°C° 0.1 mm 6 mps 747 mmHg 79%
    21:00 +14°C° 0.1 mm 6 mps 747 mmHg 80%
    22:00 +14°C° 0.4 mm 7 mps 747 mmHg 82%
    23:00 +14°C° 0.4 mm 7 mps 746 mmHg 83%
    Show more